GFSNW_925_thetae_276.txt.gz
Theta_e
317 315 317 319 319 321 321 324 332 322 320 324 325 325 324 319 324 324 324 325 325 328 330 329 326 324 323 323 324 323 324 324 326 327 328 332 335 337 338 342 341 338 337 336
320 315 317 319 319 319 320 327 329 322 323 325 325 325 324 323 324 325 325 325 327 329 331 332 328 326 325 323 323 324 324 323 325 326 327 328 331 335 337 338 337 336 337 337
320 316 316 319 320 319 317 325 335 327 325 326 326 326 326 328 328 328 328 328 330 330 333 331 332 329 328 324 324 328 327 324 324 326 327 328 330 332 334 337 339 336 337 335
319 319 316 319 319 319 317 324 337 336 328 326 330 330 331 330 330 331 332 332 331 334 336 331 331 330 330 329 333 323 324 324 325 325 325 327 329 331 333 335 335 336 336 334
320 320 316 319 319 318 321 328 331 330 335 333 333 329 334 333 331 332 331 337 336 337 339 333 332 337 337 339 327 328 325 326 326 326 325 325 326 329 332 334 335 333 333 334
319 320 316 319 318 318 323 323 322 326 327 335 337 335 335 334 334 332 334 337 337 338 337 336 337 337 338 338 339 331 328 326 329 328 326 325 326 327 328 330 330 330 331 332
319 320 317 319 318 318 320 321 323 328 329 332 335 335 334 334 333 334 333 333 335 337 335 335 336 335 337 337 336 336 330 329 330 329 330 329 327 329 329 329 329 329 330 332
318 320 317 319 318 317 320 320 323 327 330 329 329 330 332 331 330 330 331 332 333 333 334 339 337 335 338 338 336 335 335 337 337 335 330 328 330 331 332 333 331 331 333 331
318 319 318 318 317 317 318 320 319 323 329 326 326 328 328 330 330 330 332 331 330 332 337 339 340 334 333 336 339 337 333 336 338 337 334 331 330 338 341 339 332 340 340 340
317 319 319 317 317 317 318 319 318 322 328 327 327 326 327 326 328 330 331 331 332 333 338 338 335 334 337 336 335 341 340 340 334 335 336 333 338 341 341 338 341 343 344 346
316 318 319 317 318 317 318 319 318 320 326 326 325 325 326 326 327 329 330 331 335 334 339 337 336 337 338 340 337 339 338 337 336 339 339 338 338 342 343 346 345 346 346 346
315 317 318 318 317 317 316 318 317 317 319 325 322 323 324 324 325 327 327 331 333 332 339 340 341 339 340 336 337 346 341 336 339 336 338 346 342 342 342 342 344 345 344 344
315 316 317 318 317 317 316 316 315 315 319 324 325 325 324 322 322 324 328 328 328 331 335 337 339 344 344 339 338 339 347 344 342 345 334 337 341 341 341 341 342 341 340 343
315 316 317 318 317 318 316 316 317 316 318 326 326 322 323 324 323 322 323 326 327 328 332 333 335 337 338 340 343 344 345 344 345 344 342 340 340 340 340 338 338 339 339 342
315 316 317 318 317 318 316 315 316 317 318 325 326 323 323 322 322 324 324 324 325 327 331 331 333 333 336 337 337 335 338 339 344 340 342 340 339 338 338 338 340 342 342 343
315 317 317 317 318 317 315 319 316 317 316 319 328 325 326 324 324 324 325 327 326 328 329 330 330 332 333 331 332 332 331 334 335 337 336 338 337 336 337 338 340 342 342 343
315 317 317 318 317 315 319 321 318 315 315 320 326 329 326 325 326 326 326 326 328 329 330 330 331 334 332 331 333 331 331 332 332 333 333 335 336 338 338 339 341 341 343 344
315 316 317 317 316 315 315 317 315 315 316 320 328 329 327 325 329 329 327 329 329 330 330 329 331 335 335 334 332 332 331 331 333 334 334 334 335 337 338 340 342 343 344 344
314 315 316 314 314 314 316 316 316 315 315 325 327 329 331 327 329 329 328 329 332 330 331 332 332 334 337 334 335 333 332 334 334 334 333 335 338 338 338 338 341 342 342 344
314 314 314 318 315 315 315 313 316 315 317 317 326 326 329 327 330 331 331 330 332 335 333 332 335 333 332 333 334 339 340 339 338 339 338 335 339 339 338 338 338 338 340 345
314 316 318 316 315 315 317 321 321 319 322 323 326 327 328 325 328 331 332 333 332 333 334 334 333 335 334 340 341 341 340 340 341 341 340 338 335 338 339 339 339 339 342 346
314 316 315 315 317 319 322 323 323 323 326 327 327 327 326 326 325 327 330 334 334 333 334 335 335 335 344 342 340 339 338 338 339 336 338 338 337 336 338 339 342 342 344 345
315 316 318 319 320 323 324 327 327 327 326 326 325 327 325 324 325 326 329 336 334 335 335 335 333 346 344 343 340 337 336 336 339 340 335 335 336 336 337 340 342 344 345 344
317 319 321 320 323 322 323 325 326 326 328 328 328 330 328 326 326 327 331 333 336 336 334 335 337 348 344 340 338 337 337 336 336 338 340 336 336 337 336 340 342 344 345 343
317 319 321 322 321 322 323 324 325 325 324 326 328 329 329 329 327 327 332 335 335 333 333 333 343 342 340 338 337 336 335 336 337 336 338 341 337 336 338 340 342 344 344 344
316 318 319 319 321 323 323 322 323 321 320 322 327 333 334 332 328 330 330 330 330 332 339 340 339 339 337 336 334 334 335 335 335 336 337 338 341 339 337 337 341 342 342 342
317 317 318 320 322 324 323 321 320 317 321 329 329 333 334 332 332 330 328 328 331 340 338 336 337 338 337 335 335 336 336 336 335 336 337 338 339 340 340 342 340 340 341 341

GFSNW_925_thetae_279.txt.gz
Theta_e
321 321 316 316 319 321 324 327 329 325 323 326 326 327 326 318 326 325 327 327 329 329 330 331 327 328 326 326 326 326 326 327 327 330 331 332 334 337 337 340 342 338 339 338
321 320 317 316 319 319 321 330 329 327 323 328 327 327 327 326 324 323 325 327 328 330 332 333 332 329 328 326 325 326 326 325 326 327 330 330 331 335 338 335 338 341 341 337
320 319 319 316 319 319 319 329 332 331 326 326 329 328 327 326 325 324 326 327 329 330 332 332 334 329 328 328 325 331 328 326 325 327 329 329 330 332 335 337 339 339 338 335
318 320 320 316 318 319 318 329 330 340 330 327 327 328 329 330 328 328 327 329 330 331 334 334 333 332 332 331 332 327 325 326 327 326 327 328 329 330 332 335 337 338 338 336
318 320 320 317 318 319 322 331 331 333 334 335 332 327 332 333 330 329 331 330 331 330 335 338 335 332 332 335 334 328 327 326 327 327 327 327 327 328 330 332 333 335 336 336
318 320 320 317 319 319 327 328 327 329 330 332 334 333 332 332 332 333 331 335 334 336 337 337 337 337 338 338 338 331 328 327 328 328 328 327 328 328 330 332 333 335 336 335
317 319 320 317 319 319 323 326 326 331 330 330 333 333 334 334 333 335 333 334 337 337 337 337 336 335 334 335 337 336 334 330 329 330 330 330 328 329 328 330 331 332 332 331
316 318 320 317 318 318 321 324 326 331 332 330 329 331 334 334 333 334 332 331 332 335 337 339 337 334 332 334 334 335 334 331 331 331 332 331 329 330 329 330 331 331 332 333
316 318 319 318 317 318 319 323 324 326 332 330 329 330 330 331 331 333 332 330 332 333 337 337 339 336 334 335 335 333 333 335 338 340 337 333 331 331 331 332 334 335 337 338
315 317 319 318 317 318 319 322 323 324 330 329 330 329 329 329 330 332 332 332 333 333 338 338 336 340 334 339 338 338 334 335 335 337 342 340 338 339 336 334 344 346 346 348
315 316 318 319 317 318 318 321 321 322 328 328 328 329 329 329 329 332 333 333 331 334 337 336 336 336 339 342 337 344 339 339 335 336 336 341 344 338 338 348 346 346 347 347
315 315 317 319 318 318 316 320 321 320 322 327 325 325 325 327 328 331 331 332 336 336 339 336 336 346 341 340 343 335 342 337 344 337 343 339 344 346 343 343 344 345 344 344
314 315 316 318 318 317 317 320 319 319 322 327 328 329 326 325 324 325 330 329 329 333 336 338 341 343 344 347 339 340 342 340 343 336 338 338 342 338 340 340 341 341 340 342
314 315 316 317 318 317 317 319 319 318 319 328 330 325 324 324 325 325 325 327 329 330 332 335 336 338 340 339 340 343 343 347 345 340 334 336 338 342 341 340 339 341 341 341
314 315 316 317 318 318 317 318 318 319 318 326 329 325 325 325 325 326 325 325 327 329 331 334 335 334 336 337 337 337 335 336 338 336 342 344 345 341 339 339 340 342 342 343
314 315 317 317 318 318 316 319 318 319 317 319 330 328 328 326 325 326 327 328 328 328 329 331 333 333 335 337 333 333 333 332 333 335 336 338 338 337 336 338 339 340 342 343
314 316 317 317 318 317 318 321 318 317 317 320 328 332 329 326 327 328 328 327 329 329 329 330 331 331 333 335 334 330 331 332 332 332 333 334 334 335 335 338 338 338 341 343
314 316 317 317 318 316 317 317 316 317 317 321 329 332 329 327 330 330 328 329 330 331 332 331 331 330 332 336 334 332 332 332 331 331 331 332 332 334 335 338 339 341 342 343
314 316 316 315 314 315 317 317 317 317 318 323 329 332 334 329 330 330 330 330 333 331 333 332 331 331 333 334 336 335 333 333 333 332 335 334 335 337 338 339 340 342 341 342
314 314 315 318 315 316 315 314 315 316 317 318 324 329 331 329 331 332 332 332 333 334 333 331 331 331 332 332 334 336 336 338 338 338 337 336 335 336 339 339 339 339 340 341
314 316 317 316 315 315 318 321 320 319 322 321 323 327 330 329 331 333 331 335 332 333 334 333 333 334 336 334 333 339 341 342 342 342 342 341 338 337 340 339 338 339 339 341
315 316 315 315 316 319 322 324 322 323 325 327 329 330 329 329 329 331 334 333 334 334 332 334 336 334 344 342 341 341 342 341 340 341 342 341 342 340 339 339 339 341 341 346
314 315 318 319 320 323 324 326 325 328 327 328 328 330 329 330 329 330 329 332 333 332 334 336 336 347 346 344 343 342 340 339 339 341 340 338 339 339 338 339 340 342 346 348
317 319 319 321 322 321 323 325 326 326 328 328 328 328 329 328 330 330 329 329 330 332 333 335 337 351 347 346 343 341 340 339 339 340 341 341 338 338 338 338 341 345 348 347
317 318 321 322 322 323 323 323 324 327 327 330 334 333 332 329 329 327 329 329 331 333 335 335 351 352 349 345 344 342 340 340 340 340 340 342 340 338 339 338 341 345 347 346
316 318 320 321 323 323 323 326 328 324 324 324 328 332 335 334 329 328 329 330 333 332 332 346 349 348 346 344 342 340 339 339 338 338 340 340 343 341 338 339 342 344 346 346
316 317 319 321 323 323 325 326 326 321 323 328 328 331 333 333 335 332 329 330 331 339 340 341 345 345 344 341 339 339 339 339 339 338 338 340 339 341 342 341 340 343 344 346

GFSNW_925_thetae_285.txt.gz
Theta_e
316 317 318 320 319 316 322 325 332 330 328 329 327 327 326 322 323 324 327 326 325 327 327 328 329 330 325 325 324 323 323 321 322 323 324 326 328 328 327 328 331 337 343 348
316 316 317 318 319 317 317 327 331 330 330 333 328 325 325 325 325 325 326 327 324 324 325 327 331 332 331 329 326 326 325 323 322 323 322 323 328 328 328 327 327 333 343 347
315 315 317 319 320 317 319 327 335 332 330 329 329 326 328 330 328 326 327 325 323 324 326 327 331 331 332 331 326 333 323 320 320 323 325 326 328 330 328 327 327 333 340 343
314 316 317 318 320 317 319 328 333 334 338 336 335 332 328 327 329 327 326 327 324 325 328 330 331 331 331 334 338 327 322 321 322 322 324 324 323 324 327 327 326 327 341 340
314 316 318 319 320 317 320 328 334 332 335 335 334 332 332 327 328 331 332 331 328 326 326 328 330 331 338 340 339 330 326 323 326 326 325 324 324 325 324 327 327 328 336 340
314 315 317 318 320 318 324 326 327 331 332 335 335 333 332 332 334 336 333 333 333 333 333 336 335 333 335 335 337 338 337 337 338 326 325 324 324 325 325 325 327 328 328 328
313 314 316 319 320 317 320 323 325 331 334 333 333 333 332 332 335 337 335 334 335 333 333 333 333 332 333 334 335 334 337 337 338 339 333 330 326 325 326 326 326 326 329 329
313 314 316 318 319 318 318 321 324 330 334 332 333 333 333 332 335 335 335 334 331 330 330 331 335 333 334 335 333 335 333 337 335 336 337 331 329 341 344 343 331 345 346 332
313 314 315 317 319 318 318 321 324 325 329 331 330 331 332 334 332 332 333 331 330 330 329 331 337 338 338 339 335 335 333 334 339 337 338 339 345 342 342 343 344 346 346 347
313 314 315 316 319 318 318 320 321 324 328 327 328 331 332 331 333 333 333 332 333 331 330 332 335 335 341 341 343 342 342 341 339 341 345 347 342 344 343 351 354 344 340 345
312 314 315 316 318 319 317 320 321 323 326 325 324 325 329 330 331 335 332 334 334 337 338 334 336 342 345 345 341 344 342 340 344 347 351 349 339 342 346 342 343 342 338 335
311 313 314 315 317 319 317 319 320 322 322 324 322 322 323 324 326 329 330 331 334 336 337 337 341 349 344 343 347 339 346 345 345 341 345 339 338 340 339 339 342 343 340 337
311 312 314 315 316 317 318 318 318 321 322 322 323 325 325 325 326 326 328 328 328 331 328 334 340 344 342 340 342 341 340 334 340 339 341 337 338 337 338 341 339 337 336 334
310 312 313 315 316 317 318 317 319 320 321 324 325 323 322 324 324 326 326 325 325 325 326 330 334 339 337 338 338 340 340 336 337 336 334 334 337 337 339 340 337 340 341 340
310 312 313 315 315 317 318 318 318 318 321 324 323 320 322 325 326 327 327 327 327 328 329 330 331 333 337 338 340 341 335 337 339 339 335 336 338 341 338 337 337 335 340 342
310 311 313 315 317 317 318 319 320 318 320 322 323 322 324 323 325 329 328 327 327 330 330 330 329 328 331 335 341 340 334 333 333 334 332 335 336 341 338 337 338 335 335 340
310 312 314 316 317 317 318 320 318 319 319 320 324 328 330 327 327 329 329 327 328 329 330 331 330 329 329 331 334 335 334 335 333 331 331 335 335 335 339 339 338 335 336 338
311 313 315 317 317 317 317 318 318 319 319 319 326 329 331 330 332 331 329 329 329 330 329 331 332 333 332 333 332 332 333 336 335 334 331 330 330 330 331 332 334 335 334 336
312 314 316 316 316 316 317 317 317 318 318 324 325 330 334 329 331 331 331 331 333 332 331 331 333 334 340 337 333 334 334 335 335 334 334 333 335 335 335 335 335 336 337 338
315 315 316 318 316 316 317 317 318 317 318 318 323 322 326 325 331 334 334 334 336 336 335 332 334 334 334 336 334 338 338 337 336 334 337 339 339 339 338 337 335 334 339 341
314 316 317 316 316 316 317 320 320 319 321 319 320 322 324 324 329 333 335 337 338 339 335 335 338 337 335 334 334 335 337 338 337 338 339 338 338 341 342 341 341 339 340 349
315 316 316 315 316 319 321 322 321 321 324 324 325 325 325 325 326 332 336 335 337 340 338 340 337 334 337 345 338 337 336 339 339 338 340 341 342 342 342 342 342 342 349 337
315 315 318 318 317 318 323 324 325 326 324 326 328 330 330 328 329 334 337 339 339 336 338 337 338 348 349 346 342 337 341 340 340 340 340 342 343 342 342 343 341 344 347 331
316 318 314 321 322 321 322 322 323 323 324 326 330 330 333 331 334 334 335 334 334 339 337 336 335 353 351 347 343 342 342 341 340 340 340 342 344 342 340 342 341 348 350 346
316 318 320 321 320 320 322 321 323 323 326 329 331 330 331 333 330 332 335 336 335 333 331 330 330 350 352 349 346 344 342 342 341 341 341 342 344 345 341 339 339 352 351 347
316 317 320 319 321 322 321 322 324 325 328 328 329 331 332 332 332 333 335 332 332 339 338 334 339 356 354 352 348 345 344 344 342 342 341 342 344 343 345 344 351 351 350 348
316 317 316 319 321 323 325 324 324 326 328 329 329 330 330 330 331 332 332 335 339 337 335 330 328 328 346 351 349 347 345 343 343 342 341 341 341 341 343 346 344 351 350 349

GFSNW_925_thetae_291.txt.gz
Theta_e
316 314 315 317 318 319 316 316 320 324 324 321 315 321 321 320 321 323 321 319 319 319 321 321 321 325 325 325 319 316 313 312 316 317 317 319 319 321 317 320 322 332 335 337
314 313 315 317 318 319 316 315 317 325 324 325 322 321 324 323 325 321 322 322 322 320 320 322 321 324 326 328 332 319 314 313 316 317 316 318 321 322 320 316 318 333 338 336
314 313 315 317 317 319 317 317 327 324 320 318 326 330 331 330 328 326 323 322 321 318 320 320 323 325 327 330 333 337 319 310 315 318 318 319 322 320 321 319 320 322 328 329
313 313 314 317 317 318 318 316 325 326 329 328 329 328 330 331 332 327 327 326 330 321 320 320 322 326 331 332 334 330 316 317 316 317 317 320 321 324 319 320 319 322 321 334
312 313 314 316 318 318 320 322 324 322 325 325 329 328 330 331 332 330 332 333 332 319 324 324 332 331 331 334 330 329 323 327 321 323 327 324 338 342 337 331 347 326 329 331
312 313 315 317 318 318 318 320 321 321 325 326 330 330 331 333 330 330 331 333 330 330 330 330 327 326 327 329 331 330 328 327 325 329 326 324 324 342 343 341 344 345 342 337
311 313 315 316 317 318 317 319 318 322 327 328 329 328 329 330 330 331 330 329 330 329 326 322 324 324 324 327 327 325 328 328 325 328 324 330 325 336 341 344 340 340 342 341
311 314 315 315 317 318 318 317 318 322 325 326 326 327 327 327 326 329 329 330 328 327 324 324 325 325 327 329 330 328 325 326 328 329 326 326 337 336 338 342 345 342 343 342
311 313 314 316 316 317 318 317 318 321 324 321 325 324 324 327 327 328 331 329 326 325 322 326 328 329 330 333 335 329 328 323 328 327 331 332 334 336 334 336 346 341 341 341
310 312 313 315 315 316 318 318 317 319 322 318 321 324 325 324 326 326 326 328 329 327 324 327 326 327 336 337 338 338 334 330 337 337 336 334 335 335 334 345 346 339 340 341
310 311 312 314 315 316 318 318 319 319 323 321 320 320 321 321 324 327 325 327 327 330 332 332 335 339 337 337 337 337 334 333 339 337 340 337 332 334 336 334 336 339 339 339
309 310 311 312 313 315 316 318 317 318 318 320 320 320 320 320 321 321 320 324 325 328 329 328 331 339 334 332 339 333 337 333 336 335 333 330 334 332 332 333 335 337 338 339
309 309 310 311 313 314 315 317 317 318 318 315 314 316 319 319 319 319 320 319 321 327 325 326 333 337 331 334 332 334 332 331 333 332 327 330 331 332 332 333 334 335 336 337
308 309 310 312 313 314 315 316 318 318 318 323 317 319 318 319 319 319 319 319 320 317 318 322 324 331 331 332 330 331 329 331 330 330 329 328 327 328 330 331 331 335 334 335
309 309 310 311 313 315 316 317 317 317 318 320 320 318 319 319 319 318 319 319 319 318 320 321 324 323 330 327 328 330 329 330 330 329 325 325 325 326 331 329 331 333 333 332
309 310 310 311 314 315 317 316 319 318 318 319 324 316 317 319 319 317 316 318 319 318 319 321 320 319 324 331 333 329 327 326 324 326 326 326 326 326 332 334 333 333 329 327
309 310 310 312 314 315 317 318 317 318 318 321 323 320 316 320 321 319 316 318 318 319 320 321 322 322 321 323 328 324 323 326 327 326 327 328 328 329 328 332 333 329 332 333
310 310 311 314 316 317 317 317 318 318 319 318 324 319 321 319 323 324 317 320 319 320 321 320 323 321 321 326 324 323 323 323 322 324 326 327 327 326 327 327 331 333 333 333
310 312 314 316 316 316 317 317 318 317 318 322 323 323 324 315 317 320 323 318 323 319 323 322 322 323 327 325 324 324 323 321 323 323 326 327 327 328 326 330 328 331 330 329
312 314 315 317 316 316 316 317 318 317 318 318 322 319 319 316 318 321 324 323 327 326 325 321 324 327 324 322 321 322 324 322 321 325 326 326 327 329 330 332 330 328 333 340
314 315 316 316 316 316 316 320 320 319 320 318 318 318 320 315 320 322 324 328 330 335 330 327 327 328 324 326 325 323 322 323 323 324 325 323 323 326 328 331 333 335 341 343
314 315 316 316 316 318 321 321 320 320 320 316 319 319 317 318 315 321 324 331 327 333 326 330 332 325 326 326 330 331 332 326 325 325 326 326 327 327 329 330 333 338 344 343
315 314 317 318 317 317 319 322 322 321 317 318 321 325 320 320 317 319 322 331 332 327 331 332 330 326 325 324 329 331 331 329 325 326 327 329 331 333 334 335 335 335 339 343
315 316 314 319 320 318 319 317 315 315 316 318 321 324 327 326 328 328 330 326 327 334 335 332 328 323 323 325 325 327 327 327 330 330 330 333 334 335 339 337 337 336 334 337
316 316 317 318 316 313 314 313 314 316 315 315 318 323 326 325 328 328 331 332 333 331 335 330 323 321 321 324 325 326 326 326 326 327 328 331 335 336 337 337 338 338 334 334
315 316 317 316 314 314 314 314 314 312 317 318 322 325 325 325 326 330 331 333 334 336 334 329 324 321 320 322 324 325 327 325 326 327 326 326 332 335 336 338 339 337 331 334
315 315 314 313 312 313 313 313 316 315 316 321 321 325 327 324 328 331 328 329 330 329 327 326 324 321 319 321 323 325 326 326 326 327 327 327 327 332 334 335 338 342 336 334